STARLINK-5652, 55334

Orbit data source: Space-Track

STARLINK-5652, 55334 is a payload satellite owned by SpaceX/Seattle (US) in LEO that was launched on Thu, 26 Jan 2023 UTC via an FALCON 9 launch vehicle from the Air Force Eastern Test Range (AFETR). Payload-class satellites include a variety of spacecraft equipped with specific instruments for various scientific and technological missions. These include communications satellites like Starlink; space stations such as the ISS; scientific satellites like the Hubble; Earth observation satellites from companies like Planet Labs, Umbra, and HawkEye 360; GPS; miniature CubeSats for education and research; and military/defense satellites.

Loading next visibility...
Identifier
55334, 2023-013D
Orbit
LEO
Country
Flag of USUS
Related business
Manufacturer
SpaceX/Seattle
Mission
Operational Commercial Communications
Bus & Motor
STARLINK, Unknown motor
Mass
305 kg wet, ~290 kg dry
Launch date (UTC)
2023-01-26 (3 years ago)
Launch vehicle
FALCON 9
Launch site
Air Force Eastern Test Range (AFETR)
Object type
Payload
Rocket body
Debris
Shape & HBR
Box + 1 Pan, 10.1 m
Radar Cross Section
13.562 m², Large (>1 m²)

Expand to show TLE details & history
Last TLE update: 1 day ago

TLE from 1 day ago
0 STARLINK-5652
1 55334U 23013D   25348.58774050  .00002895  00000-0  22934-3 0  9994
2 55334  43.0040  43.0178 0001105 250.6881 109.3842 15.02530080158907
Epoch: 2025-12-14T14:06Z
TLE epoch observation values (Epoch: 2025-12-14T14:06:20.779Z)
Latitude
-0°
Longitude
107.93271°
Altitude
559.131 km
Speed
7.584 km/s
True Right ascension
02h 52m 04s
True Declination
0° 00' 00"
Sunlit
Object was in full shadow at epoch
Visualization orbit readout
Latitude
Unknown
Longitude
Unknown
Altitude
Unknown
Speed
Unknown
Apparent Right ascension
Unknown
Apparent Declination
Unknown
Sunlit
N/A
Visualization observer readout
Local Sidereal Time
17:04:32
Azimuth
Unknown
Elevation
Unknown
Doppler factor
Unknown
Orbital elements
Apogee altitude
561.788 km
Perigee altitude
560.254 km
Semi-major axis
6,939.158 km
Eccentricity
0.00011
Inclination
43.004°
RAAN
43.0178°
Arg. of periapsis
250.6881°
True anomaly
109.39614°
Mean anomaly
109.3842°
Eccentric anomaly
109.39017°
Mean motion
3.75477 °/min
Orbital period
95.88 mins
BSTAR
0.00022934
Loading maneuver chart data...
Computing Atmospheric mass density...
Loading historical data...
Loading historical data...
Loading historical data...
Loading historical data...
Loading historical data...
Loading historical data...
Loading historical data...

Documentation

Showing up to 5 results
|